Time,TemperatureF,DewpointF,PressureIn,WindDirection,WindDirectionDegrees,WindSpeedMPH,WindSpeedGustMPH,Humidity,HourlyPrecipIn,Conditions,Clouds,dailyrainin,SoftwareType,DateUTC
2013-08-09 00:00:00,76.9,56.4,28.13,NE,42,0.0,23.7,90,0.00,,,-99.99,HOBO +U30 +Weather +,2013-08-09 07:00:00,
2013-08-09 00:15:00,76.8,55.7,28.14,NE,42,0.0,24.2,92,0.00,,,-99.99,HOBO +U30 +Weather +,2013-08-09 07:15:00,
2013-08-09 00:30:00,76.6,55.7,28.14,NE,42,0.0,24.8,92,0.00,,,-99.99,HOBO +U30 +Weather +,2013-08-09 07:30:00,
2013-08-09 00:45:00,76.5,55.8,28.14,NE,42,0.0,24.4,93,0.00,,,-99.99,HOBO +U30 +Weather +,2013-08-09 07:45:00,
2013-08-09 01:00:00,76.3,54.8,28.14,NE,42,0.0,25.3,92,0.00,,,-99.99,HOBO +U30 +Weather +,2013-08-09 08:00:00,
2013-08-09 01:15:00,76.2,55.4,28.13,NE,42,0.0,24.4,93,0.00,,,-99.99,HOBO +U30 +Weather +,2013-08-09 08:15:00,
2013-08-09 01:39:00,76.0,54.8,28.14,NE,42,0.0,24.4,93,0.00,,,-99.99,HOBO +U30 +Weather +,2013-08-09 08:39:00,
2013-08-09 01:45:00,75.8,55.3,28.12,NE,42,0.0,24.8,94,0.00,,,-99.99,HOBO +U30 +Weather +,2013-08-09 08:45:00,
2013-08-09 02:00:00,75.7,55.1,28.13,NE,42,0.0,23.7,94,0.00,,,-99.99,HOBO +U30 +Weather +,2013-08-09 09:00:00,
2013-08-09 02:15:00,75.5,55.2,28.12,NE,42,0.0,24.4,94,0.00,,,-99.99,HOBO +U30 +Weather +,2013-08-09 09:15:00,
2013-08-09 02:38:00,75.4,54.7,28.12,NE,42,0.0,23.3,94,0.00,,,-99.99,HOBO +U30 +Weather +,2013-08-09 09:38:00,
2013-08-09 02:45:00,75.2,54.4,28.12,NE,42,0.0,24.8,95,0.00,,,-99.99,HOBO +U30 +Weather +,2013-08-09 09:45:00,
2013-08-09 03:00:00,75.0,54.2,28.12,NE,42,0.0,24.4,95,0.00,,,-99.99,HOBO +U30 +Weather +,2013-08-09 10:00:00,
2013-08-09 03:15:00,74.9,53.7,28.12,NE,42,0.0,24.4,95,0.00,,,-99.99,HOBO +U30 +Weather +,2013-08-09 10:15:00,
2013-08-09 03:38:00,74.7,53.5,28.11,NE,42,0.0,23.3,95,0.00,,,-99.99,HOBO +U30 +Weather +,2013-08-09 10:38:00,
2013-08-09 03:45:00,74.6,53.5,28.11,NE,42,0.0,24.4,95,0.00,,,-99.99,HOBO +U30 +Weather +,2013-08-09 10:45:00,
2013-08-09 04:00:00,74.4,53.0,28.11,NE,42,0.0,24.4,95,0.00,,,-99.99,HOBO +U30 +Weather +,2013-08-09 11:00:00,
2013-08-09 04:15:00,74.3,53.1,28.11,NE,42,0.0,24.4,95,0.00,,,-99.99,HOBO +U30 +Weather +,2013-08-09 11:15:00,
2013-08-09 04:38:00,74.1,52.3,28.11,NE,42,0.0,24.4,95,0.00,,,-99.99,HOBO +U30 +Weather +,2013-08-09 11:38:00,
2013-08-09 04:45:00,73.9,51.9,28.10,NE,42,0.0,24.4,96,0.00,,,-99.99,HOBO +U30 +Weather +,2013-08-09 11:45:00,
2013-08-09 05:00:00,73.8,52.1,28.10,NE,42,0.0,24.4,96,0.00,,,-99.99,HOBO +U30 +Weather +,2013-08-09 12:00:00,
2013-08-09 05:15:00,73.7,51.7,28.10,NE,42,0.0,24.8,96,0.00,,,-99.99,HOBO +U30 +Weather +,2013-08-09 12:15:00,
2013-08-09 05:38:00,73.5,51.6,28.10,NE,42,0.0,25.3,95,0.00,,,-99.99,HOBO +U30 +Weather +,2013-08-09 12:38:00,
2013-08-09 05:45:00,73.3,51.6,28.10,NE,42,0.0,24.4,95,0.00,,,-99.99,HOBO +U30 +Weather +,2013-08-09 12:45:00,
2013-08-09 06:00:00,73.2,51.6,28.09,NE,42,0.0,24.2,95,0.00,,,-99.99,HOBO +U30 +Weather +,2013-08-09 13:00:00,
2013-08-09 06:15:00,73.0,51.7,28.10,NE,42,0.0,25.3,96,0.00,,,-99.99,HOBO +U30 +Weather +,2013-08-09 13:15:00,
2013-08-09 06:38:00,72.9,52.8,28.11,NE,42,0.0,25.7,95,0.00,,,-99.99,HOBO +U30 +Weather +,2013-08-09 13:38:00,
2013-08-09 06:45:00,72.8,51.9,28.11,NE,42,0.0,25.7,95,0.00,,,-99.99,HOBO +U30 +Weather +,2013-08-09 13:45:00,
2013-08-09 07:00:00,72.6,52.4,28.11,NE,42,0.0,26.2,96,0.00,,,-99.99,HOBO +U30 +Weather +,2013-08-09 14:00:00,
2013-08-09 07:15:00,72.5,53.4,28.11,NE,42,0.0,26.6,95,0.00,,,-99.99,HOBO +U30 +Weather +,2013-08-09 14:15:00,
2013-08-09 07:38:00,72.4,54.9,28.11,NE,42,0.0,24.4,93,0.00,,,-99.99,HOBO +U30 +Weather +,2013-08-09 14:38:00,
2013-08-09 07:45:00,72.2,56.3,28.11,NE,42,0.0,24.8,91,0.00,,,-99.99,HOBO +U30 +Weather +,2013-08-09 14:45:00,
2013-08-09 08:00:00,72.1,55.1,28.11,NE,42,0.0,25.7,93,0.00,,,-99.99,HOBO +U30 +Weather +,2013-08-09 15:00:00,
2013-08-09 08:15:00,72.0,55.7,28.11,NE,42,0.0,24.8,92,0.00,,,-99.99,HOBO +U30 +Weather +,2013-08-09 15:15:00,
2013-08-09 08:36:00,71.9,56.4,28.11,NE,42,0.0,24.8,90,0.00,,,-99.99,HOBO +U30 +Weather +,2013-08-09 15:36:00,
2013-08-09 08:45:00,71.9,57.8,28.11,NE,42,0.0,25.3,87,0.00,,,-99.99,HOBO +U30 +Weather +,2013-08-09 15:45:00,
2013-08-09 09:00:00,71.7,59.1,28.11,NE,42,0.9,2.9,84,0.00,,,-99.99,HOBO +U30 +Weather +,2013-08-09 16:00:00,
2013-08-09 09:15:00,71.7,59.0,28.11,WNW,282,0.9,2.9,81,0.00,,,-99.99,HOBO +U30 +Weather +,2013-08-09 16:15:00,
2013-08-09 09:37:00,71.7,58.2,28.10,SW,222,2.5,15.4,81,0.00,,,-99.99,HOBO +U30 +Weather +,2013-08-09 16:37:00,
2013-08-09 09:45:00,71.6,59.1,28.09,SW,225,2.0,4.3,80,0.00,,,-99.99,HOBO +U30 +Weather +,2013-08-09 16:45:00,
2013-08-09 10:00:00,71.6,59.3,28.09,SW,225,1.3,13.2,80,0.00,,,-99.99,HOBO +U30 +Weather +,2013-08-09 17:00:00,
2013-08-09 10:15:00,71.6,60.5,28.09,SW,225,0.4,3.4,76,0.00,,,-99.99,HOBO +U30 +Weather +,2013-08-09 17:15:00,
2013-08-09 10:38:00,71.6,58.9,28.08,West,268,2.5,7.4,72,0.00,,,-99.99,HOBO +U30 +Weather +,2013-08-09 17:38:00,
2013-08-09 10:45:00,71.6,59.2,28.09,WNW,302,2.5,25.7,67,0.00,,,-99.99,HOBO +U30 +Weather +,2013-08-09 17:45:00,
2013-08-09 11:00:00,71.6,60.1,28.08,NW,312,2.0,5.8,65,0.00,,,-99.99,HOBO +U30 +Weather +,2013-08-09 18:00:00,
2013-08-09 11:15:00,71.7,59.9,28.07,NNW,330,2.0,5.8,63,0.00,,,-99.99,HOBO +U30 +Weather +,2013-08-09 18:15:00,
2013-08-09 11:37:00,71.7,59.0,28.07,WSW,256,4.9,25.7,66,0.00,,,-99.99,HOBO +U30 +Weather +,2013-08-09 18:37:00,
2013-08-09 11:45:00,71.9,59.6,28.07,West,272,3.8,13.2,66,0.00,,,-99.99,HOBO +U30 +Weather +,2013-08-09 18:45:00,
2013-08-09 12:00:00,72.0,59.9,28.07,WNW,298,2.0,15.0,67,0.00,,,-99.99,HOBO +U30 +Weather +,2013-08-09 19:00:00,
2013-08-09 12:15:00,72.1,60.8,28.08,NW,324,2.0,5.8,69,0.00,,,-99.99,HOBO +U30 +Weather +,2013-08-09 19:15:00,
2013-08-09 12:38:00,72.2,60.9,28.07,West,272,4.5,24.8,66,0.00,,,-99.99,HOBO +U30 +Weather +,2013-08-09 19:38:00,
2013-08-09 12:45:00,72.4,61.5,28.07,West,267,4.9,24.8,63,0.00,,,-99.99,HOBO +U30 +Weather +,2013-08-09 19:45:00,
2013-08-09 13:00:00,72.4,61.7,28.07,West,264,4.3,19.9,61,0.00,,,-99.99,HOBO +U30 +Weather +,2013-08-09 20:00:00,
2013-08-09 13:15:00,72.6,61.0,28.07,West,275,4.3,27.3,61,0.00,,,-99.99,HOBO +U30 +Weather +,2013-08-09 20:15:00,
2013-08-09 13:38:00,72.7,60.5,28.07,West,267,4.5,11.2,65,0.00,,,-99.99,HOBO +U30 +Weather +,2013-08-09 20:38:00,
2013-08-09 13:45:00,72.9,62.1,28.07,WNW,284,3.4,23.7,63,0.00,,,-99.99,HOBO +U30 +Weather +,2013-08-09 20:45:00,
2013-08-09 14:00:00,73.1,60.9,28.07,West,270,4.9,13.6,60,0.00,,,-99.99,HOBO +U30 +Weather +,2013-08-09 21:00:00,
2013-08-09 14:15:00,73.3,61.1,28.07,WSW,253,5.4,24.2,63,0.00,,,-99.99,HOBO +U30 +Weather +,2013-08-09 21:15:00,
2013-08-09 14:37:00,73.4,60.2,28.07,NW,312,4.3,19.5,63,0.00,,,-99.99,HOBO +U30 +Weather +,2013-08-09 21:37:00,
2013-08-09 14:45:00,73.6,61.3,28.07,WNW,293,3.4,11.2,63,0.00,,,-99.99,HOBO +U30 +Weather +,2013-08-09 21:45:00,
2013-08-09 15:00:00,73.8,61.5,28.07,WNW,291,3.8,9.2,60,0.00,,,-99.99,HOBO +U30 +Weather +,2013-08-09 22:00:00,
2013-08-09 15:15:00,73.9,60.8,28.07,WSW,258,4.9,21.3,59,0.00,,,-99.99,HOBO +U30 +Weather +,2013-08-09 22:15:00,
2013-08-09 15:38:00,74.1,61.8,28.07,West,274,4.5,10.1,57,0.00,,,-99.99,HOBO +U30 +Weather +,2013-08-09 22:38:00,
2013-08-09 15:45:00,74.2,61.3,28.06,West,278,4.9,19.0,55,0.00,,,-99.99,HOBO +U30 +Weather +,2013-08-09 22:45:00,
2013-08-09 16:00:00,74.4,60.5,28.06,West,270,5.4,11.6,55,0.00,,,-99.99,HOBO +U30 +Weather +,2013-08-09 23:00:00,
2013-08-09 16:15:00,74.6,61.2,28.05,WNW,282,4.9,23.7,55,0.00,,,-99.99,HOBO +U30 +Weather +,2013-08-09 23:15:00,
2013-08-09 16:37:00,74.8,61.6,28.05,West,263,4.3,10.1,52,0.00,,,-99.99,HOBO +U30 +Weather +,2013-08-09 23:37:00,
2013-08-09 16:45:00,74.9,60.8,28.04,West,261,5.4,17.0,55,0.00,,,-99.99,HOBO +U30 +Weather +,2013-08-09 23:45:00,
2013-08-09 17:00:00,75.2,60.2,28.04,West,270,5.4,13.2,53,0.00,,,-99.99,HOBO +U30 +Weather +,2013-08-10 00:00:00,
2013-08-09 17:15:00,75.3,60.3,28.04,WNW,285,5.4,17.4,53,0.00,,,-99.99,HOBO +U30 +Weather +,2013-08-10 00:15:00,
2013-08-09 17:37:00,75.5,60.2,28.04,West,275,4.9,13.0,53,0.00,,,-99.99,HOBO +U30 +Weather +,2013-08-10 00:37:00,
2013-08-09 17:45:00,75.7,59.2,28.04,West,270,4.9,25.3,53,0.00,,,-99.99,HOBO +U30 +Weather +,2013-08-10 00:45:00,
2013-08-09 18:00:00,75.9,58.8,28.04,West,277,4.3,26.6,52,0.00,,,-99.99,HOBO +U30 +Weather +,2013-08-10 01:00:00,
2013-08-09 18:15:00,76.0,58.5,28.03,WNW,284,4.3,14.1,52,0.00,,,-99.99,HOBO +U30 +Weather +,2013-08-10 01:15:00,
2013-08-09 18:37:00,76.2,58.2,28.04,WNW,298,3.8,9.2,52,0.00,,,-99.99,HOBO +U30 +Weather +,2013-08-10 01:37:00,
2013-08-09 18:45:00,76.2,58.2,28.04,NW,305,2.5,25.7,51,0.00,,,-99.99,HOBO +U30 +Weather +,2013-08-10 01:45:00,
2013-08-09 19:00:00,76.4,57.7,28.04,WNW,300,2.9,24.2,51,0.00,,,-99.99,HOBO +U30 +Weather +,2013-08-10 02:00:00,
2013-08-09 19:15:00,76.4,57.9,28.03,WNW,296,2.9,22.8,52,0.00,,,-99.99,HOBO +U30 +Weather +,2013-08-10 02:15:00,
2013-08-09 19:37:00,76.5,57.6,28.04,WNW,288,2.9,24.8,54,0.00,,,-99.99,HOBO +U30 +Weather +,2013-08-10 02:37:00,
2013-08-09 19:45:00,76.5,58.0,28.04,NW,313,2.0,18.6,59,0.00,,,-99.99,HOBO +U30 +Weather +,2013-08-10 02:45:00,
2013-08-09 20:00:00,76.6,57.9,28.05,NW,324,1.6,22.8,62,0.00,,,-99.99,HOBO +U30 +Weather +,2013-08-10 03:00:00,
2013-08-09 20:15:00,76.6,57.9,28.05,NNE,13,2.0,5.4,68,0.00,,,-99.99,HOBO +U30 +Weather +,2013-08-10 03:15:00,
2013-08-09 20:37:00,76.6,58.0,28.06,NNE,29,2.5,27.3,72,0.00,,,-99.99,HOBO +U30 +Weather +,2013-08-10 03:37:00,
2013-08-09 20:45:00,76.6,58.2,28.06,NNE,29,1.3,10.3,75,0.00,,,-99.99,HOBO +U30 +Weather +,2013-08-10 03:45:00,
2013-08-09 21:00:00,76.5,58.3,28.07,East,93,0.4,4.9,76,0.00,,,-99.99,HOBO +U30 +Weather +,2013-08-10 04:00:00,
2013-08-09 21:15:00,76.4,57.9,28.08,SE,145,0.0,22.4,76,0.00,,,-99.99,HOBO +U30 +Weather +,2013-08-10 04:15:00,
2013-08-09 21:37:00,76.4,58.3,28.07,SE,145,0.0,21.9,79,0.00,,,-99.99,HOBO +U30 +Weather +,2013-08-10 04:37:00,
2013-08-09 21:45:00,76.3,58.6,28.08,SE,145,0.0,22.8,80,0.00,,,-99.99,HOBO +U30 +Weather +,2013-08-10 04:45:00,
2013-08-09 22:00:00,76.2,58.6,28.08,SE,145,0.0,21.5,80,0.00,,,-99.99,HOBO +U30 +Weather +,2013-08-10 05:00:00,
2013-08-09 22:15:00,76.2,58.9,28.11,SE,145,0.0,21.9,81,0.00,,,-99.99,HOBO +U30 +Weather +,2013-08-10 05:15:00,
2013-08-09 22:36:00,76.1,59.3,28.11,NNE,21,2.9,24.2,85,0.00,,,-99.99,HOBO +U30 +Weather +,2013-08-10 05:36:00,
2013-08-09 22:45:00,76.0,59.5,28.13,East,79,2.5,25.3,86,0.00,,,-99.99,HOBO +U30 +Weather +,2013-08-10 05:45:00,
2013-08-09 23:00:00,75.9,59.0,28.15,ESE,102,6.7,23.3,89,0.08,,,-99.99,HOBO +U30 +Weather +,2013-08-10 06:00:00,
2013-08-09 23:15:00,75.7,59.7,28.12,NNW,337,5.4,13.0,94,0.39,,,-99.99,HOBO +U30 +Weather +,2013-08-10 06:15:00,
2013-08-09 23:30:00,75.4,59.8,28.10,South,184,3.8,11.2,94,0.08,,,-99.99,HOBO +U30 +Weather +,2013-08-10 06:30:00,
2013-08-09 23:45:00,75.2,59.5,28.12,NW,320,1.6,21.9,94,0.00,,,-99.99,HOBO +U30 +Weather +,2013-08-10 06:45:00,